Notices

What's New in latest Release from April 7th, 2021:

- Updated Glossary, including Speed of Maximum Gust, and Total Hourly Precipitation

- Updated national and regional climate services offices contacts and prices information

- Addition of station inventory lists for 1981-2010, 1971-2000, and 1961-1990 Normals.

If you haven't already, please take our survey and provide feedback about our website: https://eccc.sondage-survey.ca/f/LanguageSelection.aspx?s=442ca660-fcf1-47c0-95a9-59707d6fd709

Hourly Data Report for April 03, 2018

KENORA A
ONTARIO
Current Station Operator: NAVCAN

49°47'18.000" N
94°21'47.000" W
409.70 m
6034076
71850
YQK

Download Data

Hourly Data (April 2018)
Hourly Data Report for April 3, 2018
TIME
LST
Temp Definition
°C
Dew Point Definition
°C
Rel Hum Definition
%
Precip. Amount Definition
mm

Wind Dir Definition
10's deg

Wind Spd Definition
km/h
Visibility Definition
km
Stn Press Definition
kPa
Hmdx Definition


Wind Chill Definition


Weather Definition


00:00 -16.1 -25.2 46   2 9 24.1 97.04   -22 Clear
01:00 -17.3 -25.7 49   1 9 24.1 97.00   -24 LegendNANA
02:00 -17.6 -26.4 47   3 10 24.1 97.02   -24 LegendNANA
03:00 -18.7 -26.1 53   3 10 24.1 96.99   -26 Clear
04:00 -18.0 -26.7 48   4 11 24.1 97.09   -25 LegendNANA
05:00 -18.6 -26.5 51   1 10 24.1 97.12   -26 LegendNANA
06:00 -19.1 -26.5 53   36 10 24.1 97.11   -26 Mainly Clear
07:00 -18.1 -26.2 50   35 12 24.1 97.18   -26 LegendNANA
08:00 -16.5 -24.8 49   36 8 24.1 97.17   -22 LegendNANA
09:00 -13.0 -23.9 40   35 12 24.1 97.13   -20 Mostly Cloudy
10:00 -11.9 -24.8 34   5 12 24.1 97.16   -18 LegendNANA
11:00 -10.6 -22.6 37   36 1 24.1 97.15   -11 LegendNANA
12:00 -9.7 -22.7 34   33 9 24.1 97.08   -15 Mostly Cloudy
13:00 -9.7 -23.4 32   32 11 24.1 97.03   -15 LegendNANA
14:00 -8.7 -23.1 31   27 15 24.1 97.03   -15 LegendNANA
15:00 -8.4 -22.7 31   34 16 24.1 96.99   -15 Mostly Cloudy
16:00 -7.5 -21.6 32   35 15 24.1 96.96   -14 LegendNANA
17:00 -7.0 -21.3 32   33 14 24.1 96.94   -13 LegendNANA
18:00 -7.2 -21.1 33   31 14 24.1 96.92   -13 Mostly Cloudy
19:00 -8.3 -21.3 35   36 4 24.1 96.90   -10 LegendNANA
20:00 -8.7 -20.6 38   30 12 24.1 96.92   -14 LegendNANA
21:00 -9.9 -19.4 46   30 9 24.1 96.93   -15 Mainly Clear
22:00 -10.6 -19.1 50   32 9 24.1 96.92   -16 LegendNANA
23:00 -10.7 -19.1 50   32 9 24.1 96.91   -16 LegendNANA

Notes on Data Quality.

Legend

  • E = Estimated
  • M = Missing
  • NA = Not Available*
  • [empty] = Indicates an unobserved value
Date modified: